This demonstration page uses our WeatherBlox Daily Observations layout. Learn more.

Left ArrowRight Arrow

41.55636, -103.73856

Hourly Observations for December 3, 2017

Temp ( °F °C ) Dew Point ( °F °C ) Humidity (%) Winds ( mph kmh ) Pressure ( in mb ) Visibility ( mi km ) Precip ( " mm )
12:53 am 00:53 Clear 34 1.1 21 -6.1 59 59 N N/A 29.90 1013 10 16 N/A
1:53 am 01:53 Clear 32 undefined 22 -5.6 66 66 N N/A 29.88 1012 10 16 N/A
2:53 am 02:53 Clear 28 -2.2 20 -6.7 72 72 ENE 3 6 29.87 1012 10 16 N/A
3:53 am 03:53 Clear 29 -1.7 20 -6.7 69 69 NE 3 6 29.87 1011 10 16 N/A
4:53 am 04:53 Clear 28 -2.2 21 -6.1 75 75 NNW 7 11 29.89 1012 10 16 N/A
5:53 am 05:53 Clear 31 -0.6 22 -5.6 69 69 N 3 6 29.87 1012 10 16 N/A
6:53 am 06:53 Clear 29 -1.7 22 -5.6 75 75 E 5 7 29.87 1011 10 16 N/A
7:53 am 07:53 Sunny 30 -1.1 23 -5 75 75 N N/A 29.83 1010 10 16 N/A
8:53 am 08:53 Sunny 34 1.1 24 -4.4 67 67 SSE 9 15 29.83 1010 10 16 N/A
9:53 am 09:53 Sunny 39 3.9 25 -3.9 57 57 E 8 13 29.81 1010 10 16 N/A
10:53 am 10:53 Sunny 44 6.7 26 -3.3 49 49 ESE 7 11 29.76 1008 10 16 N/A
11:53 am 11:53 Sunny 48 8.9 27 -2.8 44 44 SE 3 6 29.69 1006 10 16 N/A
12:53 pm 12:53 Sunny 50 10 28 -2.2 43 43 ESE 6 9 29.64 1004 10 16 N/A
1:53 pm 13:53 Sunny 50 10 29 -1.7 44 44 SE 7 11 29.61 1003 10 16 N/A
2:53 pm 14:53 Sunny 49 9.4 27 -2.8 43 43 ESE 8 13 29.61 1003 10 16 N/A
3:53 pm 15:53 Sunny 47 8.3 26 -3.3 44 44 E 6 9 29.59 1002 10 16 N/A
4:53 pm 16:53 Clear 36 2.2 24 -4.4 62 62 E 6 9 29.62 1003 10 16 N/A
5:53 pm 17:53 Clear 34 1.1 23 -5 64 64 ESE 7 11 29.60 1002 10 16 N/A
6:53 pm 18:53 Clear 32 undefined 25 -3.9 75 75 E 8 13 29.60 1002 10 16 N/A
7:53 pm 19:53 Clear 30 -1.1 24 -4.4 79 79 E 9 15 29.56 1001 10 16 N/A
8:53 pm 20:53 Clear 30 -1.1 23 -5 75 75 E 9 15 29.52 1000 10 16 N/A
9:53 pm 21:53 Clear 35 1.7 26 -3.3 70 70 NW 13 20 29.57 1001 10 16 N/A
10:53 pm 22:53 Mostly Cloudy 34 1.1 26 -3.3 73 73 W 8 13 29.57 1002 10 16 N/A
11:53 pm 23:53 Mostly Cloudy 37 2.8 27 -2.8 67 67 NW 3 6 29.52 1000 10 16 N/A

Powered by AerisWeather